Location: Newark
(7.0858°N, 171.3717°E)
Time: 20:35:31
(UTC+00:00)

Tiros 1 - Pass Details

Date: 04 December 2020
Orbit: 630 x 663 km, 48.4° (Epoch: 18 January)

Event Time Altitude Azimuth Distance (km) Brightness Sun altitude
Rises 21:44:00 0° 188° (S) 2,949 10.9 40.8°
Reaches altitude 10° 21:47:05 10° 167° (SSE) 2,046 10.5 41.4°
Maximum altitude 21:50:04 17° 128° (SE) 1,657 10.7 42.0°
Drops below altitude 10° 21:53:04 10° 88° (E) 2,057 10.4 42.5°
Sets 21:56:10 0° 68° (ENE) 2,973 10.8 43.1°
